This demonstration page uses our WeatherBlox Daily Observations layout. Learn more.

Left ArrowRight Arrow

Hourly Observations for March 15, 2022

Temp ( °F °C ) Dew Point ( °F °C ) Humidity (%) Winds ( mph kmh ) Pressure ( in mb ) Visibility ( mi km ) Precip ( " mm )
12:59 am 00:59 Clear 45 7.2 36 2.2 71 71 S 5 7 30.42 1030 10 16 0.00 0.00
1:59 am 01:59 Clear 46 7.8 35 1.7 66 66 SSW 6 9 30.41 1030 10 16 0.00 0.00
2:59 am 02:59 Clear 47 8.3 35 1.7 63 63 SSW 8 13 30.40 1029 10 16 0.00 0.00
3:59 am 03:59 Clear 47 8.3 34 1.1 61 61 VRB 7 11 30.37 1029 10 16 0.00 0.00
4:59 am 04:59 Clear 46 7.8 34 1.1 63 63 SW 6 9 30.36 1028 10 16 0.00 0.00
5:59 am 05:59 Clear 47 8.3 33 0.6 59 59 SW 3 6 30.36 1028 10 16 0.00 0.00
6:59 am 06:59 Clear 46 7.8 33 0.6 61 61 SW 7 11 30.37 1028 10 16 0.00 0.00
7:59 am 07:59 Sunny 47 8.3 34 1.1 61 61 SW 7 11 30.36 1028 10 16 0.00 0.00
8:59 am 08:59 Sunny 50 10 35 1.7 57 57 SW 7 11 30.37 1028 10 16 0.00 0.00
9:59 am 09:59 Mostly Sunny 54 12.2 36 2.2 51 51 SW 7 11 30.37 1028 10 16 0.00 0.00
10:59 am 10:59 Mostly Sunny 59 15 36 2.2 42 42 SW 8 13 30.36 1028 10 16 0.00 0.00
11:59 am 11:59 Partly Cloudy 64 17.8 34 1.1 33 33 SW 9 15 30.33 1027 10 16 0.00 0.00
12:59 pm 12:59 Sunny 67 19.4 35 1.7 31 31 SW 8 13 30.30 1026 10 16 0.00 0.00
1:59 pm 13:59 Sunny 68 20 33 0.6 27 27 W 10 17 30.27 1025 10 16 0.00 0.00
2:59 pm 14:59 Partly Cloudy 70 21.1 33 0.6 26 26 WSW 8 13 30.23 1024 10 16 0.00 0.00
3:59 pm 15:59 Partly Cloudy 70 21.1 33 0.6 26 26 SW 8 13 N/A 10 16 0.00 0.00
4:59 pm 16:59 Mostly Cloudy 69 20.6 33 0.6 26 26 SW 9 15 30.21 1023 10 16 0.00 0.00
5:59 pm 17:59 Partly Cloudy 67 19.4 34 1.1 30 30 SW 9 15 30.21 1023 10 16 0.00 0.00
6:59 pm 18:59 Mostly Cloudy 65 18.3 36 2.2 34 34 SW 6 9 30.22 1023 10 16 0.00 0.00
7:59 pm 19:59 Mostly Cloudy 59 15 37 2.8 44 44 S 5 7 30.22 1023 10 16 0.00 0.00
8:59 pm 20:59 Mostly Cloudy 60 15.6 36 2.2 41 41 S 5 7 30.21 1023 10 16 0.00 0.00
9:59 pm 21:59 Mostly Cloudy 59 15 37 2.8 44 44 S 6 9 30.22 1023 10 16 0.00 0.00
10:59 pm 22:59 Mostly Cloudy 59 15 42 5.6 54 54 S 8 13 30.23 1024 10 16 0.00 0.00
11:59 pm 23:59 Mostly Cloudy 58 14.4 46 7.8 65 65 SSW 8 13 30.23 1024 10 16 0.00 0.00

Powered by AerisWeather